User: anonymous   Login
Location: Bourg-d�Oueil
(42.8588°N, 0.4991°E)
Time: 18:49:34
(UTC+00:00)
Language:

SL-24 DEB - Orbit

View from above orbital plane
View from above orbital plane
View from above satellite
View from above satellite

Ground track
Ground track

The orbit data is extracted from the following two-line orbital elements,

1 36510U 10013C   21271.15901831  .00000563  00000-0  10796-3 0  9991
2 36510  92.0244 237.1770 0021824 277.8470  82.0266 14.63444865611802
Epoch (UTC): 28 September 2021 03:48:59
Eccentricity: 0.0021824
inclination: 92.0244°
perigee height: 666 km
apogee height: 697 km
right ascension of ascending node: 237.1770°
argument of perigee: 277.8470°
revolutions per day: 14.63444865
mean anomaly at epoch: 82.0266°
orbit number at epoch: 61180

The dashed part of the orbit path shows where the satellite is in the earth's shadow,  

DLR